Regional Weather Roundup
Issued by NWS

Home | Current Version | Previous Version | Graphics & Text | Print | Product List | Glossary On
Versions: 1 2 3 4 5 6 7 8 9 10 11 12 13 14 15 16 17 18 19 20 21 22 23 24 25 26 27 28 29 30 31 32 33 34 35 36 37 38 39 40 41 42 43 44 45 46 47 48 49 50
000
ASUS44 KMEG 170410
RWRTN
TENNESSEE HOURLY STATE WEATHER ROUNDUP
NATIONAL WEATHER SERVICE MEMPHIS TN
1000 PM CST MON JAN 16 2017

TNZ002-004-019-021-049-052-054-088>092-170500-
WEST TENNESSEE

CITY           SKY/WX    TMP DP  RH WIND       PRES   REMARKS
MEMPHIS INTL   CLOUDY    68  61  78 S20G29    29.97R
NWS MEMPHIS      N/A     68 N/A N/A MISG        N/A
JACKSON        RAIN      64  62  93 S10       29.99F FOG
DYERSBURG      CLOUDY    63  61  94 S12G17    29.94F
UNION CITY     MOCLDY   N/A N/A N/A S14       29.94F
PARIS          CLOUDY    59  57  94 S14       29.98F
HUNTINGDON     CLOUDY    63  61  94 S10G17    29.98F FOG
$$

TNZ008-025-027-028-033-062-065-066-170500-
NORTH MIDDLE TENNESSEE

CITY           SKY/WX    TMP DP  RH WIND       PRES   REMARKS
NASHVILLE      CLOUDY    61  55  81 S14       30.07F
PORTLAND       CLOUDY    59  55  88 S14G24    30.06F HAZE
CLARKSVILLE    LGT RAIN  61  57  87 S12       30.02S
SMYRNA         CLOUDY    62  55  77 S9        30.08F
GALLATIN       CLOUDY    61  57  88 S5        30.11S
CROSSVILLE     CLOUDY    58  52  80 S8G17     30.16F
$$

TNZ061-075-076-078-094-096-097-170500-
SOUTH MIDDLE TENNESSEE

CITY           SKY/WX    TMP DP  RH WIND       PRES   REMARKS
FAYETTEVILLE   CLOUDY    64  52  63 S14       30.13R
TULLAHOMA      CLOUDY    64  48  55 S10       30.13S
WINCHESTER     CLOUDY    64  52  63 S12       30.14S
MCMINNVILLE    MOCLDY    64  52  63 S7        30.12F
COLUMBIA       CLOUDY    64  64 100 S10       30.04F
SHELBYVILLE    CLOUDY    66  54  63 S10       30.11F
$$

TNZ017-018-042-046-047-170500-
NORTHEAST TENNESSEE

CITY           SKY/WX    TMP DP  RH WIND       PRES   REMARKS
TRI CITIES     PTCLDY    54  47  77 CALM      30.20F
ELIZABETHTON   PTCLDY    52  48  87 CALM      30.21F
$$

TNZ012-013-036-069-073-074-170500-
CENTRAL EAST TENNESSEE

CITY           SKY/WX    TMP DP  RH WIND       PRES   REMARKS
KNOXVILLE      CLOUDY    55  52  89 CALM      30.16F
OAK RIDGE      CLOUDY    54  51  90 CALM      30.18
GATLINBURG     MOCLDY    48  48 100 CALM      30.17F
MORRISTOWN     MOCLDY    54  54 100 CALM      30.17F
JACKSBORO      MOCLDY    54  54 100 NE3       30.19F
$$

TNZ083-085-099-170500-
SOUTHEAST TENNESSEE

CITY           SKY/WX    TMP DP  RH WIND       PRES   REMARKS
CHATTANOOGA    PTCLDY    59  53  80 S7        30.19F
$$

SKY/WX REPORTED AS FAIR MEANS FEW OR NO CLOUDS BELOW
12 THOUSAND FEET.





USA.gov is the U.S. government's official web portal to all federal, state and local government web resources and services.